| time (UTC) | temp C | wind direction | speed KPH | gust KPH | rain 1hr cm | rain 24hr cm | rain mn cm | humidity % | barometer mb |
| 20260504214605 | 21 | 166 | 3.2 | 0.0 | 0.00 | 0.00 | 0.00 | 46 | 1008.5 |
| 20260504213054 | 22 | 162 | 4.8 | 0.0 | 0.00 | 0.00 | 0.00 | 44 | 1008.6 |
| 20260504211553 | 22 | 194 | 3.2 | 0.0 | 0.00 | 0.00 | 0.00 | 45 | 1008.5 |
| 20260504210055 | 23 | 142 | 4.8 | 0.0 | 0.00 | 0.00 | 0.00 | 43 | 1008.5 |
| 20260504204554 | 24 | 178 | 3.2 | 0.0 | 0.00 | 0.00 | 0.00 | 40 | 1008.3 |
| 20260504203056 | 25 | 164 | 3.2 | 0.0 | 0.00 | 0.00 | 0.00 | 29 | 1008.3 |
| 20260504201550 | 26 | 248 | 1.6 | 0.0 | 0.00 | 0.00 | 0.00 | 31 | 1008.3 |
| 20260504200048 | 25 | 313 | 3.2 | 0.0 | 0.00 | 0.00 | 0.00 | 31 | 1008.5 |
| 20260504194553 | 26 | 319 | 3.2 | 0.0 | 0.00 | 0.00 | 0.00 | 28 | 1008.7 |
| 20260504193046 | 25 | 336 | 1.6 | 0.0 | 0.00 | 0.00 | 0.00 | 29 | 1008.8 |
| 20260504191551 | 25 | 202 | 1.6 | 0.0 | 0.00 | 0.00 | 0.00 | 31 | 1009.0 |
| 20260504190040 | 25 | 195 | 3.2 | 0.0 | 0.00 | 0.00 | 0.00 | 33 | 1009.4 |
| 20260504184539 | 25 | 248 | 3.2 | 0.0 | 0.00 | 0.00 | 0.00 | 31 | 1009.7 |
| 20260504183038 | 25 | 212 | 4.8 | 0.0 | 0.00 | 0.00 | 0.00 | 30 | 1009.8 |
| 20260504181536 | 25 | 224 | 1.6 | 0.0 | 0.00 | 0.00 | 0.00 | 32 | 1009.9 |
| 20260504180034 | 25 | 202 | 3.2 | 0.0 | 0.00 | 0.00 | 0.00 | 33 | 1010.1 |
| 20260504174531 | 25 | 259 | 1.6 | 0.0 | 0.00 | 0.00 | 0.00 | 30 | 1010.3 |
| 20260504173031 | 25 | 180 | 1.6 | 0.0 | 0.00 | 0.00 | 0.00 | 31 | 1010.5 |
| 20260504171542 | 25 | 254 | 1.6 | 0.0 | 0.00 | 0.00 | 0.00 | 31 | 1010.8 |
| 20260504090108 | 7 | 204 | 0.0 | 0.0 | 0.00 | 0.00 | 0.00 | 66 | 1013.8 |
| 20260504081553 | 7 | 246 | 0.0 | 0.0 | 0.00 | 0.00 | 0.00 | 67 | 1013.8 |
| 20260504044534 | 6 | 192 | 0.0 | 0.0 | 0.00 | 0.00 | 0.00 | 67 | 1012.8 |
| 20260504043044 | 6 | 192 | 0.0 | 0.0 | 0.00 | 0.00 | 0.00 | 68 | 1012.8 |
| 20260504041536 | 6 | 192 | 0.0 | 0.0 | 0.00 | 0.00 | 0.00 | 68 | 1012.6 |
| 20260504040028 | 6 | 192 | 0.0 | 0.0 | 0.00 | 0.00 | 0.00 | 67 | 1012.6 |
| 20260504034527 | 6 | 192 | 0.0 | 0.0 | 0.00 | 0.00 | 0.00 | 66 | 1012.5 |
| 20260504033030 | 7 | 192 | 0.0 | 0.0 | 0.00 | 0.00 | 0.00 | 65 | 1012.4 |
| 20260504031526 | 7 | 192 | 0.0 | 0.0 | 0.00 | 0.00 | 0.00 | 64 | 1012.4 |
| 20260504030027 | 7 | 192 | 0.0 | 0.0 | 0.00 | 0.00 | 0.00 | 63 | 1012.3 |
| 20260504024524 | 7 | 192 | 0.0 | 0.0 | 0.00 | 0.00 | 0.00 | 61 | 1012.3 |
| 20260504023027 | 8 | 192 | 0.0 | 0.0 | 0.00 | 0.00 | 0.00 | 61 | 1012.3 |
| 20260504021524 | 8 | 192 | 0.0 | 0.0 | 0.00 | 0.00 | 0.00 | 60 | 1012.3 |
| 20260504020025 | 8 | 191 | 0.0 | 0.0 | 0.00 | 0.00 | 0.00 | 58 | 1012.3 |
| 20260504014533 | 8 | 188 | 0.0 | 0.0 | 0.00 | 0.00 | 0.00 | 57 | 1012.3 |
| 20260504013022 | 9 | 186 | 0.0 | 0.0 | 0.00 | 0.00 | 0.00 | 56 | 1012.1 |
| 20260504011522 | 10 | 186 | 0.0 | 0.0 | 0.00 | 0.00 | 0.00 | 54 | 1011.9 |
| 20260504010017 | 10 | 186 | 0.0 | 0.0 | 0.00 | 0.00 | 0.00 | 54 | 1011.6 |
| 20260504004520 | 11 | 186 | 0.0 | 0.0 | 0.00 | 0.00 | 0.00 | 52 | 1011.4 |
| 20260504003018 | 11 | 186 | 0.0 | 0.0 | 0.00 | 0.00 | 0.00 | 50 | 1011.3 |
| 20260504001517 | 12 | 186 | 0.0 | 0.0 | 0.00 | 0.00 | 0.00 | 47 | 1011.0 |
| 20260504000015 | 12 | 186 | 0.0 | 0.0 | 0.00 | 0.00 | 0.00 | 43 | 1010.9 |
| 20260503234516 | 13 | 186 | 0.0 | 0.0 | 0.00 | 0.00 | 0.00 | 42 | 1010.7 |
| 20260503233015 | 13 | 186 | 0.0 | 0.0 | 0.00 | 0.00 | 0.00 | 41 | 1010.5 |
| 20260503231517 | 13 | 221 | 0.0 | 0.0 | 0.00 | 0.00 | 0.00 | 40 | 1010.6 |
| 20260503230017 | 13 | 319 | 0.0 | 0.0 | 0.00 | 0.00 | 0.00 | 41 | 1010.5 |
| 20260503224516 | 14 | 287 | 0.0 | 0.0 | 0.00 | 0.00 | 0.00 | 39 | 1010.4 |
| 20260503223015 | 15 | 194 | 0.0 | 0.0 | 0.00 | 0.00 | 0.00 | 40 | 1010.4 |
| 20260503221513 | 15 | 291 | 3.2 | 0.0 | 0.00 | 0.00 | 0.00 | 35 | 1010.2 |
| 20260503220011 | 15 | 279 | 4.8 | 0.0 | 0.00 | 0.00 | 0.00 | 34 | 1010.3 |